Regional Weather Roundup
Issued by NWS State College, PA

Home | Current Version | Previous Version | Text Only | Print | Product List | Glossary Off
Versions: 1 2 3 4 5 6 7 8 9 10 11 12 13 14 15 16 17 18 19 20 21 22 23 24 25 26 27 28 29 30 31 32 33 34 35 36 37 38 39 40 41 42 43 44 45 46 47 48 49 50

000
ASUS41 KCTP 181203
RWRCTP

REGIONAL WEATHER ROUNDUP
NATIONAL WEATHER SERVICE STATE COLLEGE PA
800 AM EDT WED OCT 18 2017

Note: "fair" indicates few or no clouds below 12,000 feet with no
significant weather and/or obstructions to visibility.

* = STATION THAT DOES NOT REPORT PRECIPITATION /E.G. RAIN...SNOW...ETC/
    THUNDER OR FOG.

PAZ002>004-007>009-013>016-020>023-029>032-181300-
WESTERN PENNSYLVANIA

CITY           SKY/WX    TMP DP  RH WIND       PRES   REMARKS
ERIE           CLEAR     49  40  71 S7        30.29R
MEADVILLE      CLEAR     45  39  79 S7        30.31S
FRANKLIN*      CLEAR     41  37  86 S7        30.33R
NEW CASTLE     NOT AVBL
BEAVER COUNTY  CLEAR     41  37  87 CALM      30.33S
BUTLER*        CLEAR    N/A N/A N/A NE3       30.35R
PITTSBURGH INT CLEAR     41  37  86 CALM      30.34R
PITTSBURGH     CLEAR     42  38  85 S8        30.33S
INDIANA*       CLEAR     37  37 100 E3        30.38R
LATROBE        CLEAR     37  37 100 CALM      30.36R
WASHINGTON CO* CLEAR     37  36  96 CALM      30.37S
$$

PAZ004>006-010>012-017>019-024>028-033>037-041-042-045-046-049>053-181300-
CENTRAL PENNSYLVANIA

CITY           SKY/WX    TMP DP  RH WIND       PRES   REMARKS
BRADFORD       CLEAR     36  35  96 CALM      30.32R
DUBOIS         CLEAR     41  36  82 CALM      30.33R
CLEARFIELD     CLEAR     36  35  96 SW6       30.35R FOG
JOHNSTOWN      CLEAR     43  35  73 SW5       30.35R
ALTOONA        CLEAR     44  38  79 CALM      30.36R
STATE COLLEGE  CLEAR     43  37  81 CALM      30.35R
WILLIAMSPORT   FOG       41  40  96 N3        30.35R VSB 3/4
SELINSGROVE    PTCLDY    38  38 100 CALM      30.37R FOG
FT INDIANTOWN  CLEAR     37  37 100 CALM      30.36R
CAPITAL CITY   CLEAR     41  37  86 CALM      30.37R
HARRISBURG     CLEAR     44  42  93 NE3       30.36R
YORK           CLEAR     37  37 100 CALM      30.36R
$$

PAZ038>040-043-044-047-048-054-055-060>062-067>071-181300-
EASTERN PENNSYLVANIA

CITY           SKY/WX    TMP DP  RH WIND       PRES   REMARKS
SCRANTON       CLEAR     40  38  93 CALM      30.33R
MOUNT POCONO   CLEAR     41  38  89 W5        30.30S
ALLENTOWN      CLEAR     41  37  86 W5        30.34R
QUAKERTOWN*    SUNNY     37  37 100 CALM      30.35R
READING        CLEAR     41  41 100 CALM      30.35R
LANCASTER      CLEAR     40  39  97 CALM      30.36R
COATESVILLE    SUNNY     46  37  71 W5        30.36S
POTTSTOWN      CLEAR     38  38 100 CALM      30.36R
BLUE BELL      CLEAR     39  39 100 CALM      30.36S
DOYLESTOWN     CLEAR     44  38  79 S3        30.33S
WILLOW GROVE   NOT AVBL
NORTH PHILA    CLEAR     48  40  73 W3        30.36R
PHILADELPHIA   CLEAR     49  41  74 SW5       30.36R
$$




USA.gov is the U.S. government's official web portal to all federal, state and local government web resources and services.